Previsão horária em Znojmo

Hoje, 1 Agosto, Domingo

Tempo Temperatura Precipitação Vento Pressão Humidade
00:00 +21°C° 0.6 mm 1 m/s 732 mmHg 81%
01:00 +20°C° 0 mm 1 m/s 732 mmHg 87%
02:00 +20°C° 0.3 mm 1 m/s 731 mmHg 89%
03:00 +20°C° 0.3 mm 1 m/s 731 mmHg 91%
04:00 +18°C° 0.3 mm 2 m/s 730 mmHg 93%
05:00 +18°C° 1 mm 2 m/s 730 mmHg 92%
06:00 +19°C° 1 mm 3 m/s 729 mmHg 92%
07:00 +19°C° 0 mm 3 m/s 729 mmHg 91%
08:00 +20°C° 0.7 mm 4 m/s 729 mmHg 86%
09:00 +21°C° 0.7 mm 4 m/s 729 mmHg 82%
10:00 +22°C° 0.7 mm 4 m/s 729 mmHg 77%
11:00 +21°C° 0.3 mm 5 m/s 729 mmHg 78%
12:00 +21°C° 0.3 mm 5 m/s 729 mmHg 80%
13:00 +21°C° 0 mm 5 m/s 729 mmHg 79%
14:00 +20°C° 0.2 mm 5 m/s 729 mmHg 79%
15:00 +19°C° 0.2 mm 5 m/s 730 mmHg 78%
16:00 +19°C° 0.2 mm 6 m/s 730 mmHg 77%
17:00 +17°C° 0.1 mm 5 m/s 730 mmHg 76%
18:00 +17°C° 0.1 mm 5 m/s 730 mmHg 75%
19:00 +17°C° 0.1 mm 5 m/s 731 mmHg 74%
20:00 +16°C° 0.3 mm 5 m/s 731 mmHg 78%
21:00 +15°C° 0.3 mm 5 m/s 731 mmHg 82%
22:00 +15°C° 0.3 mm 5 m/s 732 mmHg 86%
23:00 +15°C° 0.4 mm 5 m/s 732 mmHg 88%

Amanhã, 2 Agosto, Segunda-feira

Tempo Temperatura Precipitação Vento Pressão Humidade
00:00 +15°C° 0.4 mm 5 m/s 732 mmHg 89%
01:00 +14°C° 0.4 mm 5 m/s 733 mmHg 91%
02:00 +14°C° 0.4 mm 5 m/s 733 mmHg 90%
03:00 +14°C° 0.4 mm 5 m/s 733 mmHg 90%
04:00 +14°C° 0.4 mm 5 m/s 733 mmHg 89%
05:00 +15°C° 0 mm 5 m/s 733 mmHg 87%
06:00 +15°C° 0 mm 5 m/s 734 mmHg 85%
07:00 +17°C° 0 mm 4 m/s 734 mmHg 84%
08:00 +17°C° 0.1 mm 5 m/s 734 mmHg 75%
09:00 +20°C° 0.1 mm 5 m/s 735 mmHg 66%
10:00 +22°C° 0.1 mm 5 m/s 735 mmHg 57%
11:00 +22°C° 0.1 mm 5 m/s 735 mmHg 53%
12:00 +23°C° 0.1 mm 5 m/s 735 mmHg 48%
13:00 +25°C° 0.1 mm 5 m/s 734 mmHg 43%
14:00 +25°C° 0 mm 4 m/s 734 mmHg 45%
15:00 +25°C° 0 mm 4 m/s 734 mmHg 47%
16:00 +23°C° 0 mm 4 m/s 734 mmHg 48%
17:00 +22°C° 0 mm 3 m/s 735 mmHg 55%
18:00 +21°C° 0 mm 2 m/s 735 mmHg 61%
19:00 +19°C° 0 mm 2 m/s 735 mmHg 68%
20:00 +18°C° 0 mm 2 m/s 735 mmHg 72%
21:00 +18°C° 0 mm 1 m/s 736 mmHg 77%
22:00 +16°C° 0 mm 1 m/s 736 mmHg 81%
23:00 +16°C° 0 mm 1 m/s 736 mmHg 82%

Depois de amanhã, 3 Agosto, Terça-feira

Tempo Temperatura Precipitação Vento Pressão Humidade
00:00 +15°C° 0 mm 1 m/s 736 mmHg 84%
01:00 +15°C° 0 mm 1 m/s 736 mmHg 85%
02:00 +14°C° 0 mm 1 m/s 736 mmHg 86%
03:00 +14°C° 0 mm 1 m/s 736 mmHg 87%
04:00 +14°C° 0 mm 1 m/s 736 mmHg 88%
05:00 +15°C° 0 mm 1 m/s 736 mmHg 83%
06:00 +15°C° 0 mm 0 m/s 737 mmHg 78%
07:00 +17°C° 0 mm 0 m/s 737 mmHg 73%
08:00 +20°C° 0 mm 1 m/s 737 mmHg 67%
09:00 +22°C° 0 mm 1 m/s 737 mmHg 61%
10:00 +23°C° 0 mm 2 m/s 736 mmHg 55%
11:00 +24°C° 0 mm 2 m/s 736 mmHg 51%
12:00 +25°C° 0 mm 2 m/s 736 mmHg 47%
13:00 +26°C° 0 mm 3 m/s 735 mmHg 43%
14:00 +27°C° 0 mm 2 m/s 735 mmHg 42%
15:00 +27°C° 0 mm 2 m/s 734 mmHg 42%
16:00 +27°C° 0 mm 2 m/s 734 mmHg 41%
17:00 +26°C° 0.1 mm 2 m/s 734 mmHg 47%
18:00 +24°C° 0.1 mm 2 m/s 734 mmHg 53%
19:00 +23°C° 0.1 mm 2 m/s 733 mmHg 59%
20:00 +20°C° 0.6 mm 2 m/s 734 mmHg 68%
21:00 +20°C° 0.6 mm 1 m/s 734 mmHg 76%
22:00 +19°C° 0.6 mm 1 m/s 734 mmHg 84%
23:00 +17°C° 1.1 mm 2 m/s 735 mmHg 86%

4 Agosto, Quarta-feira

Tempo Temperatura Precipitação Vento Pressão Humidade
00:00 +17°C° 1.1 mm 2 m/s 735 mmHg 88%
01:00 +17°C° 1.1 mm 3 m/s 735 mmHg 90%
02:00 +16°C° 0.4 mm 2 m/s 735 mmHg 89%
03:00 +16°C° 0.4 mm 2 m/s 735 mmHg 89%
04:00 +16°C° 0.4 mm 1 m/s 735 mmHg 89%
05:00 +18°C° 0 mm 1 m/s 735 mmHg 86%
06:00 +18°C° 0 mm 1 m/s 735 mmHg 83%
07:00 +18°C° 0 mm 2 m/s 735 mmHg 79%
08:00 +19°C° 0 mm 2 m/s 735 mmHg 72%
09:00 +21°C° 0 mm 2 m/s 735 mmHg 65%
10:00 +23°C° 0 mm 2 m/s 735 mmHg 57%
11:00 +24°C° 0 mm 1 m/s 735 mmHg 53%
12:00 +25°C° 0 mm 1 m/s 735 mmHg 49%
13:00 +24°C° 0 mm 0 m/s 734 mmHg 45%
14:00 +24°C° 0 mm 0 m/s 734 mmHg 44%
15:00 +26°C° 0 mm 1 m/s 734 mmHg 42%
16:00 +27°C° 0 mm 1 m/s 734 mmHg 41%
17:00 +25°C° 0 mm 1 m/s 734 mmHg 46%
18:00 +24°C° 0 mm 1 m/s 734 mmHg 51%
19:00 +23°C° 0 mm 1 m/s 733 mmHg 56%
20:00 +21°C° 0 mm 2 m/s 734 mmHg 60%
21:00 +20°C° 0 mm 2 m/s 734 mmHg 64%
22:00 +19°C° 0 mm 3 m/s 734 mmHg 68%
23:00 +19°C° 0.2 mm 3 m/s 734 mmHg 74%

5 Agosto, Quinta-feira

Tempo Temperatura Precipitação Vento Pressão Humidade
00:00 +18°C° 0.2 mm 3 m/s 734 mmHg 79%
01:00 +18°C° 0.2 mm 3 m/s 734 mmHg 85%
02:00 +17°C° 0.8 mm 3 m/s 734 mmHg 88%
03:00 +17°C° 0.8 mm 2 m/s 734 mmHg 90%
04:00 +17°C° 0.8 mm 2 m/s 734 mmHg 93%
05:00 +17°C° 0.5 mm 2 m/s 734 mmHg 93%
06:00 +18°C° 0.5 mm 1 m/s 734 mmHg 92%
07:00 +18°C° 0.5 mm 1 m/s 734 mmHg 91%
08:00 +18°C° 0.2 mm 1 m/s 734 mmHg 88%
09:00 +18°C° 0.2 mm 2 m/s 734 mmHg 86%
10:00 +18°C° 0.2 mm 2 m/s 734 mmHg 83%
11:00 +19°C° 0.2 mm 1 m/s 734 mmHg 81%
12:00 +20°C° 0.2 mm 1 m/s 733 mmHg 80%
13:00 +20°C° 0.2 mm 1 m/s 733 mmHg 78%
14:00 +20°C° 0.4 mm 1 m/s 733 mmHg 79%
15:00 +20°C° 0.4 mm 1 m/s 733 mmHg 81%
16:00 +20°C° 0.4 mm 1 m/s 732 mmHg 82%
17:00 +19°C° 0.1 mm 1 m/s 732 mmHg 83%
18:00 +19°C° 0.1 mm 1 m/s 732 mmHg 84%
19:00 +19°C° 0.1 mm 1 m/s 731 mmHg 86%
20:00 +18°C° 0 mm 1 m/s 732 mmHg 86%
21:00 +16°C° 0 mm 1 m/s 732 mmHg 87%
22:00 +16°C° 0 mm 1 m/s 732 mmHg 87%
23:00 +16°C° 0 mm 1 m/s 732 mmHg 87%

6 Agosto, Sexta-feira

Tempo Temperatura Precipitação Vento Pressão Humidade
00:00 +15°C° 0 mm 2 m/s 732 mmHg 86%
01:00 +15°C° 0 mm 2 m/s 732 mmHg 86%
02:00 +15°C° 0 mm 2 m/s 732 mmHg 86%
03:00 +15°C° 0 mm 2 m/s 732 mmHg 86%
04:00 +14°C° 0 mm 2 m/s 732 mmHg 87%
05:00 +16°C° 0 mm 2 m/s 732 mmHg 83%
06:00 +17°C° 0 mm 2 m/s 732 mmHg 80%
07:00 +18°C° 0 mm 3 m/s 732 mmHg 76%
08:00 +20°C° 0.2 mm 3 m/s 732 mmHg 70%
09:00 +21°C° 0.2 mm 3 m/s 732 mmHg 64%
10:00 +23°C° 0.2 mm 4 m/s 733 mmHg 58%
11:00 +25°C° 0.2 mm 4 m/s 732 mmHg 54%
12:00 +26°C° 0.2 mm 4 m/s 732 mmHg 49%
13:00 +26°C° 0.2 mm 4 m/s 732 mmHg 45%
14:00 +26°C° 0 mm 3 m/s 732 mmHg 46%
15:00 +26°C° 0 mm 3 m/s 732 mmHg 46%
16:00 +26°C° 0 mm 3 m/s 732 mmHg 46%
17:00 +25°C° 0 mm 3 m/s 732 mmHg 52%
18:00 +24°C° 0 mm 2 m/s 732 mmHg 58%
19:00 +22°C° 0 mm 1 m/s 732 mmHg 64%
20:00 +21°C° 0 mm 1 m/s 733 mmHg 68%
21:00 +20°C° 0 mm 1 m/s 733 mmHg 71%
22:00 +19°C° 0 mm 1 m/s 733 mmHg 75%
23:00 +19°C° 0 mm 1 m/s 733 mmHg 77%
Mostrar mais

Necessitamos do seu Consentimento

A Meteoprog e os seus Fornecedores de Serviços podem armazenar e aceder a dados pessoais como cookies, identificadores do dispositivo ou outras tecnologias semelhantes existentes no seu dispositivo e processar estes dados para personalizar conteúdos e anúncios, assim como funcionalidades nas redes sociais e análise de tráfego.

  • Armazenar e/ou aceder a informações no seu dispositivo

    Os cookies, identificadores do dispositivo ou outras informações podem ser armazenados ou acedidos no seu dispositivo, para os fins acima indicados.

  • Anúncios e conteúdos personalizados, medição de anúncios e conteúdos, dados sobre o público-alvo e desenvolvimento de produtos

    Os anúncios e os conteúdos podem ser personalizados com base num perfil. Podem ser adicionados dados adicionais para uma maior personalização dos anúncios e dos conteúdos. A eficácia dos anúncios e dos conteúdos pode ser medida. Podem ser obtidas informações sobre o público que visualizou os anúncios e os conteúdos. Estes dados podem ser usados para desenvolver ou melhorar sistemas, softwares ou a experiência do utilizador.

Ao clicar em "Eu concordo”, permitirá o uso de cookies, identificadores do dispositivo e web beacons mencionados ou outras tecnologias semelhantes. As configurações do navegador do seu dispositivo podem ser alteradas.

Para certos fins, podem ser invocados interesses legítimos ao invés de consentimento. Pode ler mais informação sobre este assunto na nossa Política de Privacidade e Cookies.